Time,TemperatureF,DewpointF,PressureIn,WindDirection,WindDirectionDegrees,WindSpeedMPH,WindSpeedGustMPH,Humidity,HourlyPrecipIn,Conditions,Clouds,dailyrainin,SoftwareType,DateUTC
2013-01-16 00:00:00,31.6,28.5,30.15,North,11,0.0,0.0,88,0.00,RA,,0.00,WeatherDisplay:10.37,2013-01-16 05:00:00,
2013-01-16 00:01:00,31.6,28.5,30.15,North,11,0.0,0.0,88,0.00,RA,,0.00,WeatherDisplay:10.37,2013-01-16 05:01:00,
2013-01-16 00:02:00,31.6,28.5,30.15,North,11,0.0,0.0,88,0.00,RA,,0.00,WeatherDisplay:10.37,2013-01-16 05:02:00,
2013-01-16 00:03:00,31.6,28.5,30.15,North,11,0.0,0.0,88,0.00,RA,,0.00,WeatherDisplay:10.37,2013-01-16 05:03:00,
2013-01-16 00:08:00,31.5,28.4,30.14,NNE,18,0.0,0.0,88,0.00,RA,,0.00,WeatherDisplay:10.37,2013-01-16 05:08:00,
2013-01-16 00:13:00,31.5,28.6,30.15,NNE,16,0.0,0.0,89,0.00,CLR,,0.00,WeatherDisplay:10.37,2013-01-16 05:13:00,
2013-01-16 00:18:00,31.5,28.6,30.15,North,0,0.0,0.0,89,0.00,CLR,,0.00,WeatherDisplay:10.37,2013-01-16 05:18:00,
2013-01-16 00:23:00,31.3,28.4,30.15,North,0,0.0,0.0,89,0.00,CLR,,0.00,WeatherDisplay:10.37,2013-01-16 05:23:00,
2013-01-16 00:29:00,31.2,28.6,30.15,North,359,0.0,0.0,90,0.00,CLR,,0.00,WeatherDisplay:10.37,2013-01-16 05:29:00,
2013-01-16 00:34:00,31.2,28.6,30.14,North,10,0.0,0.0,90,0.00,CLR,,0.00,WeatherDisplay:10.37,2013-01-16 05:34:00,
2013-01-16 00:39:00,31.0,28.4,30.15,North,0,0.0,0.0,90,0.00,CLR,,0.00,WeatherDisplay:10.37,2013-01-16 05:39:00,
2013-01-16 00:44:00,31.0,28.4,30.15,North,0,1.4,10.4,90,0.00,CLR,,0.00,WeatherDisplay:10.37,2013-01-16 05:44:00,
2013-01-16 00:49:00,30.9,28.3,30.14,North,10,0.3,1.2,90,0.00,CLR,,0.00,WeatherDisplay:10.37,2013-01-16 05:49:00,
2013-01-16 00:54:00,30.9,28.6,30.14,North,1,0.0,1.2,91,0.00,CLR,,0.00,WeatherDisplay:10.37,2013-01-16 05:54:00,
2013-01-16 00:59:00,30.7,28.4,30.13,NNE,25,0.0,1.0,91,0.00,CLR,,0.00,WeatherDisplay:10.37,2013-01-16 05:59:00,
2013-01-16 01:05:00,30.7,28.4,30.12,NNE,25,0.0,0.0,91,0.00,CLR,,0.00,WeatherDisplay:10.37,2013-01-16 06:05:00,
2013-01-16 01:10:00,30.6,28.3,30.12,NE,41,0.4,2.3,91,0.00,CLR,,0.00,WeatherDisplay:10.37,2013-01-16 06:10:00,
2013-01-16 01:15:00,30.4,28.1,30.13,North,0,0.0,1.2,91,0.00,CLR,,0.00,WeatherDisplay:10.37,2013-01-16 06:15:00,
2013-01-16 01:20:00,30.6,28.6,30.13,North,0,0.0,0.0,92,0.00,CLR,,0.00,WeatherDisplay:10.37,2013-01-16 06:20:00,
2013-01-16 01:25:00,30.6,28.6,30.12,North,10,0.0,0.0,92,0.00,CLR,,0.00,WeatherDisplay:10.37,2013-01-16 06:25:00,
2013-01-16 01:30:00,30.6,28.6,30.12,North,1,0.0,1.2,92,0.00,CLR,,0.00,WeatherDisplay:10.37,2013-01-16 06:30:00,
2013-01-16 01:36:00,30.4,28.4,30.12,North,0,0.5,2.3,92,0.00,CLR,,0.00,WeatherDisplay:10.37,2013-01-16 06:36:00,
2013-01-16 01:41:00,30.4,28.4,30.12,North,7,0.0,0.0,92,0.00,CLR,,0.00,WeatherDisplay:10.37,2013-01-16 06:41:00,
2013-01-16 01:46:00,30.4,28.4,30.11,North,7,0.0,0.0,92,0.00,CLR,,0.00,WeatherDisplay:10.37,2013-01-16 06:46:00,
2013-01-16 01:51:00,30.3,28.3,30.10,NNE,20,0.0,1.2,92,0.00,CLR,,0.00,WeatherDisplay:10.37,2013-01-16 06:51:00,
2013-01-16 01:56:00,30.4,28.4,30.11,NNE,18,0.1,0.0,92,0.00,CLR,,0.00,WeatherDisplay:10.37,2013-01-16 06:56:00,
2013-01-16 02:01:00,30.4,28.4,30.12,NNE,18,0.0,0.0,92,0.00,CLR,,0.00,WeatherDisplay:10.37,2013-01-16 07:01:00,
2013-01-16 02:06:00,30.4,28.6,30.11,NNE,18,0.0,0.0,93,0.00,CLR,,0.00,WeatherDisplay:10.37,2013-01-16 07:06:00,
2013-01-16 02:11:00,30.6,28.8,30.11,NNE,18,0.0,0.0,93,0.00,CLR,,0.00,WeatherDisplay:10.37,2013-01-16 07:11:00,
2013-01-16 02:17:00,30.6,28.8,30.10,NNE,20,0.0,0.0,93,0.00,CLR,,0.00,WeatherDisplay:10.37,2013-01-16 07:17:00,
2013-01-16 02:22:00,30.7,28.9,30.10,NNE,16,0.0,0.0,93,0.00,CLR,,0.00,WeatherDisplay:10.37,2013-01-16 07:22:00,
2013-01-16 02:27:00,30.7,28.9,30.10,North,6,0.0,0.0,93,0.00,CLR,,0.00,WeatherDisplay:10.37,2013-01-16 07:27:00,
2013-01-16 02:32:00,30.7,28.9,30.09,NNE,13,1.1,2.3,93,0.00,CLR,,0.00,WeatherDisplay:10.37,2013-01-16 07:32:00,
2013-01-16 02:37:00,30.7,28.9,30.09,NNE,30,0.7,5.8,93,0.00,CLR,,0.00,WeatherDisplay:10.37,2013-01-16 07:37:00,
2013-01-16 02:43:00,30.7,28.9,30.09,NNE,30,0.7,1.2,93,0.01,RA,,0.01,WeatherDisplay:10.37,2013-01-16 07:43:00,
2013-01-16 02:48:00,30.7,28.9,30.08,ENE,61,0.7,2.3,93,0.02,RA,,0.02,WeatherDisplay:10.37,2013-01-16 07:48:00,
2013-01-16 02:53:00,30.9,29.1,30.07,NNE,20,1.7,5.8,93,0.02,RA,,0.02,WeatherDisplay:10.37,2013-01-16 07:53:00,
2013-01-16 02:58:00,30.9,29.1,30.08,NE,54,0.4,3.5,93,0.03,RA,,0.04,WeatherDisplay:10.37,2013-01-16 07:58:00,
2013-01-16 03:03:00,30.9,29.1,30.07,NNE,17,0.4,3.0,93,0.04,RA,,0.04,WeatherDisplay:10.37,2013-01-16 08:03:00,
2013-01-16 03:08:00,30.9,29.1,30.07,NE,38,0.2,1.2,93,0.05,RA,,0.05,WeatherDisplay:10.37,2013-01-16 08:08:00,
2013-01-16 03:14:00,30.9,29.1,30.07,NNE,32,0.0,0.0,93,0.06,RA,,0.06,WeatherDisplay:10.37,2013-01-16 08:14:00,
2013-01-16 03:19:00,30.9,29.1,30.07,NNE,32,0.0,0.0,93,0.06,RA,,0.06,WeatherDisplay:10.37,2013-01-16 08:19:00,
2013-01-16 03:24:00,30.9,29.1,30.07,NNE,27,0.0,0.0,93,0.07,RA,,0.07,WeatherDisplay:10.37,2013-01-16 08:24:00,
2013-01-16 03:29:00,30.9,29.1,30.06,North,359,0.0,0.0,93,0.07,RA,,0.07,WeatherDisplay:10.37,2013-01-16 08:29:00,
2013-01-16 03:34:00,30.7,28.9,30.06,NE,44,0.5,2.3,93,0.07,CLR,,0.07,WeatherDisplay:10.37,2013-01-16 08:34:00,
2013-01-16 03:39:00,30.7,28.9,30.06,North,7,1.7,3.5,93,0.07,CLR,,0.07,WeatherDisplay:10.37,2013-01-16 08:39:00,
2013-01-16 03:44:00,30.7,28.9,30.06,NNE,14,0.1,2.3,93,0.06,CLR,,0.08,WeatherDisplay:10.37,2013-01-16 08:44:00,
2013-01-16 03:50:00,30.7,28.9,30.05,NE,40,1.4,3.5,93,0.06,RA,,0.08,WeatherDisplay:10.37,2013-01-16 08:50:00,
2013-01-16 03:55:00,30.6,28.8,30.05,NE,40,0.7,3.5,93,0.06,,,0.08,WeatherDisplay:10.37,2013-01-16 08:55:00,
2013-01-16 04:00:00,30.6,28.8,30.05,NE,40,1.8,3.5,93,0.04,CLR,,0.08,WeatherDisplay:10.37,2013-01-16 09:00:00,
2013-01-16 04:05:00,30.6,28.8,30.04,NE,40,0.0,3.5,93,0.04,CLR,,0.08,WeatherDisplay:10.37,2013-01-16 09:05:00,
2013-01-16 04:11:00,30.6,28.8,30.04,NE,40,0.5,3.5,93,0.03,CLR,,0.08,WeatherDisplay:10.37,2013-01-16 09:11:00,
2013-01-16 04:16:00,30.6,28.8,30.04,NE,40,0.0,0.0,93,0.02,CLR,,0.08,WeatherDisplay:10.37,2013-01-16 09:16:00,
2013-01-16 04:21:00,30.6,28.8,30.04,NE,40,0.8,1.2,93,0.01,CLR,,0.08,WeatherDisplay:10.37,2013-01-16 09:21:00,
2013-01-16 04:26:00,30.6,28.8,30.04,NE,40,1.1,1.2,93,0.01,CLR,,0.08,WeatherDisplay:10.37,2013-01-16 09:26:00,
2013-01-16 04:32:00,30.6,28.8,30.04,NE,40,0.0,0.0,93,0.01,CLR,,0.08,WeatherDisplay:10.37,2013-01-16 09:32:00,
2013-01-16 04:37:00,30.6,28.8,30.03,NE,40,0.0,0.0,93,0.01,CLR,,0.08,WeatherDisplay:10.37,2013-01-16 09:37:00,
2013-01-16 04:42:00,30.4,28.6,30.02,NE,40,0.0,0.0,93,0.01,CLR,,0.08,WeatherDisplay:10.37,2013-01-16 09:42:00,
2013-01-16 04:47:00,30.4,28.6,30.03,NE,40,0.0,0.0,93,0.00,CLR,,0.08,WeatherDisplay:10.37,2013-01-16 09:47:00,
2013-01-16 04:52:00,30.4,28.6,30.02,NE,40,0.0,0.0,93,0.00,CLR,,0.08,WeatherDisplay:10.37,2013-01-16 09:52:00,
2013-01-16 04:57:00,30.4,28.6,30.02,NE,40,1.2,2.3,93,0.00,CLR,,0.08,WeatherDisplay:10.37,2013-01-16 09:57:00,
2013-01-16 05:02:00,30.3,28.5,30.02,NE,40,0.8,2.3,93,0.00,CLR,,0.08,WeatherDisplay:10.37,2013-01-16 10:02:00,
2013-01-16 05:07:00,30.3,28.5,30.02,NE,40,1.6,3.5,93,0.00,CLR,,0.08,WeatherDisplay:10.37,2013-01-16 10:07:00,
2013-01-16 05:12:00,30.3,28.3,30.01,NE,40,2.8,5.0,92,0.00,CLR,,0.08,WeatherDisplay:10.37,2013-01-16 10:12:00,
2013-01-16 05:17:00,30.3,28.3,30.01,NE,40,2.0,3.5,92,0.00,CLR,,0.08,WeatherDisplay:10.37,2013-01-16 10:17:00,
2013-01-16 05:22:00,30.3,28.3,30.01,NE,40,1.3,3.5,92,0.00,CLR,,0.08,WeatherDisplay:10.37,2013-01-16 10:22:00,
2013-01-16 05:27:00,30.3,28.3,30.00,NE,40,1.7,5.0,92,0.00,CLR,,0.08,WeatherDisplay:10.37,2013-01-16 10:27:00,
2013-01-16 05:33:00,30.3,28.3,30.01,NE,40,1.1,2.3,92,0.00,CLR,,0.08,WeatherDisplay:10.37,2013-01-16 10:33:00,
2013-01-16 05:38:00,30.3,28.3,30.01,NE,40,0.0,0.0,92,0.00,CLR,,0.08,WeatherDisplay:10.37,2013-01-16 10:38:00,
2013-01-16 05:43:00,30.3,28.3,30.01,NE,40,0.0,0.0,92,0.00,CLR,,0.08,WeatherDisplay:10.37,2013-01-16 10:43:00,
2013-01-16 05:48:00,30.4,28.4,30.01,NE,40,0.0,0.0,92,0.00,CLR,,0.08,WeatherDisplay:10.37,2013-01-16 10:48:00,
2013-01-16 05:53:00,30.4,28.4,30.00,NE,40,0.0,1.2,92,0.00,CLR,,0.08,WeatherDisplay:10.37,2013-01-16 10:53:00,
2013-01-16 05:58:00,30.4,28.4,30.01,NE,40,0.0,0.0,92,0.00,CLR,,0.08,WeatherDisplay:10.37,2013-01-16 10:58:00,
2013-01-16 06:03:00,30.4,28.4,30.01,NE,40,0.0,0.0,92,0.00,CLR,,0.08,WeatherDisplay:10.37,2013-01-16 11:03:00,
2013-01-16 06:08:00,30.4,28.4,30.02,NE,40,1.4,3.5,92,0.00,CLR,,0.08,WeatherDisplay:10.37,2013-01-16 11:08:00,
2013-01-16 06:13:00,30.4,28.4,30.02,NE,40,1.0,2.3,92,0.00,CLR,,0.08,WeatherDisplay:10.37,2013-01-16 11:13:00,
2013-01-16 06:19:00,30.4,28.4,30.01,NE,40,0.9,2.3,92,0.00,CLR,,0.08,WeatherDisplay:10.37,2013-01-16 11:19:00,
2013-01-16 06:24:00,30.4,28.4,30.01,NE,40,0.4,1.2,92,0.00,CLR,,0.08,WeatherDisplay:10.37,2013-01-16 11:24:00,
2013-01-16 06:29:00,30.4,28.4,30.01,NE,40,1.0,2.3,92,0.00,CLR,,0.08,WeatherDisplay:10.37,2013-01-16 11:29:00,
2013-01-16 06:34:00,30.4,28.4,30.01,NE,40,0.9,2.3,92,0.00,CLR,,0.08,WeatherDisplay:10.37,2013-01-16 11:34:00,
2013-01-16 06:39:00,30.4,28.4,30.00,NE,40,0.5,2.3,92,0.00,CLR,,0.08,WeatherDisplay:10.37,2013-01-16 11:39:00,
2013-01-16 06:44:00,30.3,28.3,30.00,NE,40,0.5,1.2,92,0.00,CLR,,0.08,WeatherDisplay:10.37,2013-01-16 11:44:00,
2013-01-16 06:49:00,30.3,28.3,30.00,NE,40,0.9,2.3,92,0.00,CLR,,0.08,WeatherDisplay:10.37,2013-01-16 11:49:00,
2013-01-16 06:54:00,30.3,28.3,30.00,NE,40,0.0,0.0,92,0.00,CLR,,0.08,WeatherDisplay:10.37,2013-01-16 11:54:00,
2013-01-16 07:00:00,30.3,28.3,30.00,NE,40,0.0,0.0,92,0.00,CLR,,0.08,WeatherDisplay:10.37,2013-01-16 12:00:00,
2013-01-16 07:05:00,30.3,28.3,30.00,NE,40,0.0,0.0,92,0.00,CLR,,0.08,WeatherDisplay:10.37,2013-01-16 12:05:00,
2013-01-16 07:10:00,30.4,28.6,30.00,NE,40,0.0,0.0,93,0.00,CLR,,0.08,WeatherDisplay:10.37,2013-01-16 12:10:00,
2013-01-16 07:15:00,30.4,28.6,30.00,NE,40,0.0,0.0,93,0.00,CLR,,0.08,WeatherDisplay:10.37,2013-01-16 12:15:00,
2013-01-16 07:20:00,30.4,28.6,29.99,NE,40,0.0,0.0,93,0.00,CLR,,0.08,WeatherDisplay:10.37,2013-01-16 12:20:00,
2013-01-16 07:25:00,30.4,28.6,29.99,NE,40,0.0,0.0,93,0.00,CLR,,0.08,WeatherDisplay:10.37,2013-01-16 12:25:00,
2013-01-16 07:31:00,30.4,28.6,29.99,NE,40,0.0,0.0,93,0.00,CLR,,0.08,WeatherDisplay:10.37,2013-01-16 12:31:00,
2013-01-16 07:36:00,30.4,28.6,29.99,NE,40,0.0,0.0,93,0.00,CLR,,0.08,WeatherDisplay:10.37,2013-01-16 12:36:00,
2013-01-16 07:41:00,30.4,28.6,29.99,NE,40,0.0,0.0,93,0.00,CLR,,0.08,WeatherDisplay:10.37,2013-01-16 12:41:00,
2013-01-16 07:46:00,30.4,28.6,29.99,NE,40,0.0,0.0,93,0.00,CLR,,0.08,WeatherDisplay:10.37,2013-01-16 12:46:00,
2013-01-16 07:51:00,30.4,28.6,29.99,NE,40,0.0,0.0,93,0.00,CLR,,0.08,WeatherDisplay:10.37,2013-01-16 12:51:00,
2013-01-16 07:56:00,30.4,28.6,29.98,NE,40,0.0,0.0,93,0.00,CLR,,0.08,WeatherDisplay:10.37,2013-01-16 12:56:00,
2013-01-16 08:01:00,30.4,28.6,29.98,NE,40,0.0,0.0,93,0.00,CLR,,0.08,WeatherDisplay:10.37,2013-01-16 13:01:00,
2013-01-16 08:06:00,30.4,28.9,29.97,NE,40,0.0,0.0,94,0.00,CLR,,0.08,WeatherDisplay:10.37,2013-01-16 13:06:00,
2013-01-16 08:12:00,30.4,28.9,29.96,NE,40,0.0,0.0,94,0.00,CLR,,0.08,WeatherDisplay:10.37,2013-01-16 13:12:00,
2013-01-16 08:17:00,30.3,28.5,29.95,NE,40,0.0,0.0,93,0.00,CLR,,0.08,WeatherDisplay:10.37,2013-01-16 13:17:00,
2013-01-16 08:22:00,30.4,28.6,29.94,NE,40,0.0,0.0,93,0.00,CLR,,0.08,WeatherDisplay:10.37,2013-01-16 13:22:00,
2013-01-16 08:27:00,30.4,28.6,29.94,NE,40,0.0,0.0,93,0.00,CLR,,0.08,WeatherDisplay:10.37,2013-01-16 13:27:00,
2013-01-16 08:32:00,30.4,28.6,29.93,NE,40,0.0,0.0,93,0.00,CLR,,0.08,WeatherDisplay:10.37,2013-01-16 13:32:00,
2013-01-16 08:37:00,30.4,28.9,29.93,NE,40,2.9,3.5,94,0.00,CLR,,0.08,WeatherDisplay:10.37,2013-01-16 13:37:00,
2013-01-16 08:43:00,30.4,28.9,29.94,NE,40,3.3,4.6,94,0.00,CLR,,0.08,WeatherDisplay:10.37,2013-01-16 13:43:00,
2013-01-16 08:48:00,30.6,29.1,29.95,NE,40,1.0,2.3,94,0.00,CLR,,0.08,WeatherDisplay:10.37,2013-01-16 13:48:00,
2013-01-16 08:53:00,30.6,29.1,29.94,NE,40,2.1,3.5,94,0.00,CLR,,0.08,WeatherDisplay:10.37,2013-01-16 13:53:00,
2013-01-16 08:58:00,30.6,29.1,29.94,NE,40,1.0,2.3,94,0.00,CLR,,0.08,WeatherDisplay:10.37,2013-01-16 13:58:00,
2013-01-16 09:03:00,30.6,29.1,29.93,NE,40,1.4,3.5,94,0.00,CLR,,0.08,WeatherDisplay:10.37,2013-01-16 14:03:00,
2013-01-16 09:08:00,30.6,29.1,29.93,NE,40,0.0,0.0,94,0.00,CLR,,0.08,WeatherDisplay:10.37,2013-01-16 14:08:00,
2013-01-16 09:14:00,30.7,29.2,29.92,NE,40,0.0,0.0,94,0.00,CLR,,0.08,WeatherDisplay:10.37,2013-01-16 14:14:00,
2013-01-16 09:19:00,30.7,29.2,29.92,NE,40,0.0,0.0,94,0.00,CLR,,0.08,WeatherDisplay:10.37,2013-01-16 14:19:00,
2013-01-16 09:24:00,30.7,29.2,29.93,NE,40,0.0,0.0,94,0.00,CLR,,0.08,WeatherDisplay:10.37,2013-01-16 14:24:00,
2013-01-16 09:29:00,30.9,29.4,29.92,NE,40,0.0,0.0,94,0.00,CLR,,0.08,WeatherDisplay:10.37,2013-01-16 14:29:00,
2013-01-16 09:34:00,30.9,29.4,29.93,NE,40,0.0,0.0,94,0.00,CLR,,0.08,WeatherDisplay:10.37,2013-01-16 14:34:00,
2013-01-16 09:39:00,30.9,29.4,29.93,NE,40,0.0,0.0,94,0.00,CLR,,0.08,WeatherDisplay:10.37,2013-01-16 14:39:00,
2013-01-16 09:44:00,31.0,29.5,29.93,NE,40,0.0,0.0,94,0.00,CLR,,0.08,WeatherDisplay:10.37,2013-01-16 14:44:00,
2013-01-16 09:49:00,30.9,29.4,29.93,NE,40,0.0,0.0,94,0.00,CLR,,0.08,WeatherDisplay:10.37,2013-01-16 14:49:00,
2013-01-16 09:55:00,30.7,29.2,29.94,NE,40,0.0,0.0,94,0.00,CLR,,0.08,WeatherDisplay:10.37,2013-01-16 14:55:00,
2013-01-16 10:00:00,30.4,28.9,29.94,NE,40,0.0,0.0,94,0.00,CLR,,0.08,WeatherDisplay:10.37,2013-01-16 15:00:00,
2013-01-16 10:05:00,30.3,28.8,29.94,NE,40,0.0,0.0,94,0.00,CLR,,0.08,WeatherDisplay:10.37,2013-01-16 15:05:00,
2013-01-16 10:10:00,30.1,28.6,29.95,NE,40,0.0,0.0,94,0.00,CLR,,0.08,WeatherDisplay:10.37,2013-01-16 15:10:00,
2013-01-16 10:15:00,30.1,28.6,29.95,NE,40,0.0,0.0,94,0.00,CLR,,0.08,WeatherDisplay:10.37,2013-01-16 15:15:00,
2013-01-16 10:20:00,30.1,28.6,29.95,NE,40,0.0,0.0,94,0.00,CLR,,0.08,WeatherDisplay:10.37,2013-01-16 15:20:00,
2013-01-16 10:26:00,30.0,28.5,29.96,NE,40,0.0,0.0,94,0.00,CLR,,0.08,WeatherDisplay:10.37,2013-01-16 15:26:00,
2013-01-16 10:31:00,30.0,28.5,29.95,NE,40,0.0,0.0,94,0.00,CLR,,0.08,WeatherDisplay:10.37,2013-01-16 15:31:00,
2013-01-16 10:36:00,30.0,28.5,29.94,NE,40,0.0,0.0,94,0.00,CLR,,0.08,WeatherDisplay:10.37,2013-01-16 15:36:00,
2013-01-16 10:41:00,30.0,28.5,29.95,NE,40,0.0,0.0,94,0.00,CLR,,0.08,WeatherDisplay:10.37,2013-01-16 15:41:00,
2013-01-16 10:46:00,29.8,28.3,29.93,NE,40,0.0,0.0,94,0.00,CLR,,0.08,WeatherDisplay:10.37,2013-01-16 15:46:00,
2013-01-16 10:51:00,29.8,28.3,29.92,NE,40,0.0,0.0,94,0.00,CLR,,0.08,WeatherDisplay:10.37,2013-01-16 15:51:00,
2013-01-16 10:56:00,29.8,28.3,29.91,NE,40,0.0,0.0,94,0.00,CLR,,0.08,WeatherDisplay:10.37,2013-01-16 15:56:00,
2013-01-16 11:01:00,29.8,28.3,29.91,NE,40,0.0,0.0,94,0.00,CLR,,0.08,WeatherDisplay:10.37,2013-01-16 16:01:00,
2013-01-16 11:06:00,29.8,28.3,29.92,NE,40,0.0,0.0,94,0.00,CLR,,0.08,WeatherDisplay:10.37,2013-01-16 16:06:00,
2013-01-16 11:11:00,30.1,28.6,29.93,NE,40,0.0,0.0,94,0.00,CLR,,0.08,WeatherDisplay:10.37,2013-01-16 16:11:00,
2013-01-16 11:17:00,30.1,28.6,29.93,NE,40,0.0,0.0,94,0.00,CLR,,0.08,WeatherDisplay:10.37,2013-01-16 16:17:00,
2013-01-16 11:22:00,30.1,28.6,29.93,NE,40,0.0,0.0,94,0.00,CLR,,0.08,WeatherDisplay:10.37,2013-01-16 16:22:00,
2013-01-16 11:27:00,30.1,28.6,29.91,NE,40,0.0,0.0,94,0.00,CLR,,0.08,WeatherDisplay:10.37,2013-01-16 16:27:00,
2013-01-16 11:32:00,29.8,28.3,29.90,NE,40,0.0,0.0,94,0.00,CLR,,0.08,WeatherDisplay:10.37,2013-01-16 16:32:00,
2013-01-16 11:37:00,29.7,28.2,29.90,NE,40,0.0,0.0,94,0.00,CLR,,0.08,WeatherDisplay:10.37,2013-01-16 16:37:00,
2013-01-16 11:42:00,29.7,28.2,29.89,NE,40,0.0,0.0,94,0.00,CLR,,0.08,WeatherDisplay:10.37,2013-01-16 16:42:00,
2013-01-16 11:48:00,29.7,28.2,29.89,NE,40,0.0,0.0,94,0.00,CLR,,0.08,WeatherDisplay:10.37,2013-01-16 16:48:00,
2013-01-16 11:53:00,29.7,28.2,29.84,NE,40,0.0,0.0,94,0.00,CLR,,0.08,WeatherDisplay:10.37,2013-01-16 16:53:00,
2013-01-16 11:58:00,29.8,28.3,29.82,NE,40,0.0,0.0,94,0.00,CLR,,0.08,WeatherDisplay:10.37,2013-01-16 16:58:00,
2013-01-16 12:03:00,29.8,28.3,29.90,NE,40,1.5,2.3,94,0.00,CLR,,0.08,WeatherDisplay:10.37,2013-01-16 17:03:00,
2013-01-16 12:08:00,30.0,28.5,29.89,NE,40,1.6,3.5,94,0.00,CLR,,0.08,WeatherDisplay:10.37,2013-01-16 17:08:00,
2013-01-16 12:13:00,30.1,28.6,29.87,NE,40,0.2,2.0,94,0.00,CLR,,0.08,WeatherDisplay:10.37,2013-01-16 17:13:00,
2013-01-16 12:18:00,30.0,28.5,29.87,NE,40,1.0,2.3,94,0.00,CLR,,0.08,WeatherDisplay:10.37,2013-01-16 17:18:00,
2013-01-16 12:23:00,30.0,28.5,29.84,NE,40,0.0,0.0,94,0.00,CLR,,0.08,WeatherDisplay:10.37,2013-01-16 17:23:00,
2013-01-16 12:28:00,30.0,28.5,29.81,NE,40,0.0,0.0,94,0.00,CLR,,0.08,WeatherDisplay:10.37,2013-01-16 17:28:00,
2013-01-16 12:33:00,29.8,28.3,29.80,NE,40,0.2,2.0,94,0.00,CLR,,0.08,WeatherDisplay:10.37,2013-01-16 17:33:00,
2013-01-16 12:39:00,29.8,28.3,29.81,NE,40,0.0,0.0,94,0.00,CLR,,0.08,WeatherDisplay:10.37,2013-01-16 17:39:00,
2013-01-16 12:44:00,29.7,28.2,29.81,NE,40,0.0,0.0,94,0.00,CLR,,0.08,WeatherDisplay:10.37,2013-01-16 17:44:00,
2013-01-16 12:49:00,29.7,28.2,29.80,NE,40,0.0,0.0,94,0.00,CLR,,0.08,WeatherDisplay:10.37,2013-01-16 17:49:00,
2013-01-16 12:54:00,29.7,28.4,29.80,NE,40,0.0,0.0,95,0.00,CLR,,0.08,WeatherDisplay:10.37,2013-01-16 17:54:00,
2013-01-16 12:59:00,29.8,28.5,29.77,NE,40,0.0,0.0,95,0.00,CLR,,0.08,WeatherDisplay:10.37,2013-01-16 17:59:00,
2013-01-16 13:04:00,29.8,28.5,29.84,NE,40,0.7,2.0,95,0.00,CLR,,0.08,WeatherDisplay:10.37,2013-01-16 18:04:00,
2013-01-16 13:10:00,30.0,28.7,29.82,NE,40,0.0,0.0,95,0.00,CLR,,0.08,WeatherDisplay:10.37,2013-01-16 18:10:00,
2013-01-16 13:15:00,30.0,28.7,29.84,NE,40,1.0,2.3,95,0.00,CLR,,0.08,WeatherDisplay:10.37,2013-01-16 18:15:00,
2013-01-16 13:20:00,30.1,28.8,29.77,NE,40,0.0,0.0,95,0.00,CLR,,0.08,WeatherDisplay:10.37,2013-01-16 18:20:00,
2013-01-16 13:25:00,30.0,28.7,29.80,NE,40,0.0,0.0,95,0.00,CLR,,0.08,WeatherDisplay:10.37,2013-01-16 18:25:00,
2013-01-16 13:30:00,30.0,28.7,29.88,NE,41,2.7,4.6,95,0.00,CLR,,0.08,WeatherDisplay:10.37,2013-01-16 18:30:00,
2013-01-16 13:35:00,30.0,28.7,29.85,NE,40,0.8,2.3,95,0.00,CLR,,0.08,WeatherDisplay:10.37,2013-01-16 18:35:00,
2013-01-16 13:40:00,29.8,28.5,29.85,NE,40,0.7,2.3,95,0.00,CLR,,0.08,WeatherDisplay:10.37,2013-01-16 18:40:00,
2013-01-16 13:46:00,29.8,28.5,29.85,NE,40,0.0,0.0,95,0.00,CLR,,0.08,WeatherDisplay:10.37,2013-01-16 18:46:00,
2013-01-16 13:51:00,29.8,28.5,29.85,NE,40,0.0,0.0,95,0.00,CLR,,0.08,WeatherDisplay:10.37,2013-01-16 18:51:00,
2013-01-16 13:56:00,30.0,28.7,29.85,NE,40,0.0,0.0,95,0.00,CLR,,0.08,WeatherDisplay:10.37,2013-01-16 18:56:00,
2013-01-16 14:01:00,30.0,28.7,29.85,NE,40,0.0,0.0,95,0.00,CLR,,0.08,WeatherDisplay:10.37,2013-01-16 19:01:00,
2013-01-16 14:06:00,30.1,28.8,29.83,NE,41,0.0,0.0,95,0.00,CLR,,0.08,WeatherDisplay:10.37,2013-01-16 19:06:00,
2013-01-16 14:12:00,30.1,28.8,29.83,NE,40,0.0,0.0,95,0.00,CLR,,0.08,WeatherDisplay:10.37,2013-01-16 19:12:00,
2013-01-16 14:17:00,30.3,29.0,29.84,NE,40,0.0,0.0,95,0.00,CLR,,0.08,WeatherDisplay:10.37,2013-01-16 19:17:00,
2013-01-16 14:22:00,30.4,29.1,29.84,NE,40,0.0,0.0,95,0.00,CLR,,0.08,WeatherDisplay:10.37,2013-01-16 19:22:00,
2013-01-16 14:27:00,30.4,29.1,29.84,NE,40,0.0,0.0,95,0.00,CLR,,0.08,WeatherDisplay:10.37,2013-01-16 19:27:00,
2013-01-16 14:32:00,30.6,29.3,29.82,NE,40,0.0,0.0,95,0.00,CLR,,0.08,WeatherDisplay:10.37,2013-01-16 19:32:00,
2013-01-16 14:37:00,30.6,29.3,29.84,NE,40,0.0,0.0,95,0.00,CLR,,0.08,WeatherDisplay:10.37,2013-01-16 19:37:00,
2013-01-16 14:42:00,30.6,29.3,29.82,NE,40,0.0,0.0,95,0.00,CLR,,0.08,WeatherDisplay:10.37,2013-01-16 19:42:00,
2013-01-16 14:48:00,30.4,29.1,29.83,NE,40,0.0,0.0,95,0.00,CLR,,0.08,WeatherDisplay:10.37,2013-01-16 19:48:00,
2013-01-16 14:53:00,30.3,29.0,29.83,NE,40,0.0,0.0,95,0.00,CLR,,0.08,WeatherDisplay:10.37,2013-01-16 19:53:00,
2013-01-16 14:58:00,30.3,29.0,29.83,NE,40,0.0,0.0,95,0.00,CLR,,0.08,WeatherDisplay:10.37,2013-01-16 19:58:00,
2013-01-16 15:03:00,30.3,29.0,29.83,NE,40,0.0,0.0,95,0.00,CLR,,0.08,WeatherDisplay:10.37,2013-01-16 20:03:00,
2013-01-16 15:08:00,30.1,28.8,29.84,NE,40,0.0,0.0,95,0.00,CLR,,0.08,WeatherDisplay:10.37,2013-01-16 20:08:00,
2013-01-16 15:13:00,30.3,29.0,29.82,NE,40,0.0,0.0,95,0.00,CLR,,0.08,WeatherDisplay:10.37,2013-01-16 20:13:00,
2013-01-16 15:18:00,30.3,29.0,29.83,NE,40,0.0,0.0,95,0.00,CLR,,0.08,WeatherDisplay:10.37,2013-01-16 20:18:00,
2013-01-16 15:23:00,30.4,29.1,29.84,NE,40,0.0,0.0,95,0.00,CLR,,0.08,WeatherDisplay:10.37,2013-01-16 20:23:00,
2013-01-16 15:29:00,30.6,29.6,29.84,NE,40,0.0,0.0,96,0.00,CLR,,0.08,WeatherDisplay:10.37,2013-01-16 20:29:00,
2013-01-16 15:34:00,30.7,29.4,29.83,NE,40,0.0,0.0,95,0.00,CLR,,0.08,WeatherDisplay:10.37,2013-01-16 20:34:00,
2013-01-16 15:39:00,30.7,29.4,29.83,NE,40,0.0,0.0,95,0.00,CLR,,0.08,WeatherDisplay:10.37,2013-01-16 20:39:00,
2013-01-16 15:44:00,30.7,29.7,29.84,NE,40,0.0,0.0,96,0.00,CLR,,0.08,WeatherDisplay:10.37,2013-01-16 20:44:00,
2013-01-16 15:49:00,30.9,29.9,29.83,NE,40,0.0,0.0,96,0.00,CLR,,0.08,WeatherDisplay:10.37,2013-01-16 20:49:00,
2013-01-16 15:54:00,30.7,29.4,29.83,NE,40,0.0,0.0,95,0.00,CLR,,0.08,WeatherDisplay:10.37,2013-01-16 20:54:00,
2013-01-16 16:00:00,30.7,29.4,29.84,NE,40,0.0,0.0,95,0.00,CLR,,0.08,WeatherDisplay:10.37,2013-01-16 21:00:00,
2013-01-16 16:05:00,30.7,29.4,29.84,NE,40,0.0,0.0,95,0.00,CLR,,0.08,WeatherDisplay:10.37,2013-01-16 21:05:00,
2013-01-16 16:10:00,30.7,29.7,29.83,NE,40,0.0,0.0,96,0.00,CLR,,0.08,WeatherDisplay:10.37,2013-01-16 21:10:00,
2013-01-16 16:15:00,30.7,29.7,29.84,NE,40,0.0,0.0,96,0.00,CLR,,0.08,WeatherDisplay:10.37,2013-01-16 21:15:00,
2013-01-16 16:20:00,30.7,29.7,29.85,NE,40,0.0,0.0,96,0.00,CLR,,0.08,WeatherDisplay:10.37,2013-01-16 21:20:00,
2013-01-16 16:25:00,30.7,29.7,29.85,NE,40,0.0,0.0,96,0.00,CLR,,0.08,WeatherDisplay:10.37,2013-01-16 21:25:00,
2013-01-16 16:30:00,30.9,29.9,29.84,NE,40,0.3,1.0,96,0.00,CLR,,0.08,WeatherDisplay:10.37,2013-01-16 21:30:00,
2013-01-16 16:36:00,30.9,29.9,29.85,NE,40,0.0,0.0,96,0.00,CLR,,0.08,WeatherDisplay:10.37,2013-01-16 21:36:00,
2013-01-16 16:41:00,31.0,30.0,29.85,NE,40,1.3,2.3,96,0.00,CLR,,0.08,WeatherDisplay:10.37,2013-01-16 21:41:00,
2013-01-16 16:46:00,31.0,30.0,29.84,NE,40,0.7,2.3,96,0.00,CLR,,0.08,WeatherDisplay:10.37,2013-01-16 21:46:00,
2013-01-16 16:51:00,31.0,30.0,29.85,NE,40,1.6,2.3,96,0.00,CLR,,0.08,WeatherDisplay:10.37,2013-01-16 21:51:00,
2013-01-16 16:56:00,31.0,30.0,29.85,NE,40,1.8,3.5,96,0.00,CLR,,0.08,WeatherDisplay:10.37,2013-01-16 21:56:00,
2013-01-16 17:01:00,31.0,30.0,29.85,NE,40,1.4,2.3,96,0.00,CLR,,0.08,WeatherDisplay:10.37,2013-01-16 22:01:00,
2013-01-16 17:06:00,31.0,30.0,29.85,NE,40,1.3,5.0,96,0.00,CLR,,0.08,WeatherDisplay:10.37,2013-01-16 22:06:00,
2013-01-16 17:11:00,31.0,30.0,29.85,NE,40,0.0,4.6,96,0.00,CLR,,0.08,WeatherDisplay:10.37,2013-01-16 22:11:00,
2013-01-16 17:16:00,31.0,30.0,29.86,NE,40,1.0,3.5,96,0.00,CLR,,0.08,WeatherDisplay:10.37,2013-01-16 22:16:00,
2013-01-16 17:21:00,31.0,30.0,29.85,NE,40,0.2,3.5,96,0.00,CLR,,0.08,WeatherDisplay:10.37,2013-01-16 22:21:00,
2013-01-16 17:26:00,31.0,30.0,29.84,NE,40,1.6,3.5,96,0.00,CLR,,0.08,WeatherDisplay:10.37,2013-01-16 22:26:00,
2013-01-16 17:31:00,31.0,30.0,29.84,NE,40,0.0,0.0,96,0.00,CLR,,0.08,WeatherDisplay:10.37,2013-01-16 22:31:00,
2013-01-16 17:37:00,31.2,30.2,29.84,NE,40,1.1,3.5,96,0.00,CLR,,0.08,WeatherDisplay:10.37,2013-01-16 22:37:00,
2013-01-16 17:42:00,31.2,30.2,29.84,NE,40,1.5,3.5,96,0.00,CLR,,0.08,WeatherDisplay:10.37,2013-01-16 22:42:00,
2013-01-16 17:47:00,31.2,30.2,29.84,NE,40,0.0,0.0,96,0.00,CLR,,0.08,WeatherDisplay:10.37,2013-01-16 22:47:00,
2013-01-16 17:52:00,31.2,30.2,29.85,NE,40,2.8,5.8,96,0.00,CLR,,0.08,WeatherDisplay:10.37,2013-01-16 22:52:00,
2013-01-16 17:57:00,31.2,30.2,29.84,NE,40,2.3,3.5,96,0.00,CLR,,0.08,WeatherDisplay:10.37,2013-01-16 22:57:00,
2013-01-16 18:02:00,31.2,30.2,29.84,NE,40,2.7,3.5,96,0.00,CLR,,0.08,WeatherDisplay:10.37,2013-01-16 23:02:00,
2013-01-16 18:07:00,31.3,30.3,29.85,NE,40,2.5,3.5,96,0.00,CLR,,0.08,WeatherDisplay:10.37,2013-01-16 23:07:00,
2013-01-16 18:13:00,31.3,30.3,29.84,NE,40,2.5,5.8,96,0.00,CLR,,0.08,WeatherDisplay:10.37,2013-01-16 23:13:00,
2013-01-16 18:18:00,31.3,30.5,29.84,NE,40,1.3,3.5,97,0.00,CLR,,0.08,WeatherDisplay:10.37,2013-01-16 23:18:00,
2013-01-16 18:23:00,31.5,30.7,29.84,NE,40,0.4,3.5,97,0.00,CLR,,0.08,WeatherDisplay:10.37,2013-01-16 23:23:00,
2013-01-16 18:28:00,31.5,30.7,29.85,NE,40,0.9,3.5,97,0.00,CLR,,0.08,WeatherDisplay:10.37,2013-01-16 23:28:00,
2013-01-16 18:33:00,31.5,30.7,29.85,NE,40,1.2,2.0,97,0.00,CLR,,0.08,WeatherDisplay:10.37,2013-01-16 23:33:00,
2013-01-16 18:38:00,31.6,30.8,29.85,NE,40,4.0,8.1,97,0.00,CLR,,0.08,WeatherDisplay:10.37,2013-01-16 23:38:00,
2013-01-16 18:43:00,31.6,30.8,29.85,NE,40,3.4,5.8,97,0.00,CLR,,0.08,WeatherDisplay:10.37,2013-01-16 23:43:00,
2013-01-16 18:48:00,31.6,30.8,29.86,NE,40,4.1,9.2,97,0.00,CLR,,0.08,WeatherDisplay:10.37,2013-01-16 23:48:00,
2013-01-16 18:54:00,31.8,31.0,29.86,NE,40,2.4,5.8,97,0.00,CLR,,0.08,WeatherDisplay:10.37,2013-01-16 23:54:00,
2013-01-16 18:59:00,31.8,31.0,29.86,NE,40,3.5,5.8,97,0.00,CLR,,0.08,WeatherDisplay:10.37,2013-01-16 23:59:00,
2013-01-16 19:04:00,31.8,31.0,29.86,NE,40,3.0,5.0,97,0.00,CLR,,0.08,WeatherDisplay:10.37,2013-01-17 00:04:00,
2013-01-16 19:09:00,31.9,31.1,29.85,NE,40,3.5,5.8,97,0.00,CLR,,0.08,WeatherDisplay:10.37,2013-01-17 00:09:00,
2013-01-16 19:14:00,31.9,31.1,29.86,NE,40,3.4,5.0,97,0.00,CLR,,0.08,WeatherDisplay:10.37,2013-01-17 00:14:00,
2013-01-16 19:19:00,31.9,31.1,29.86,NE,40,1.9,6.9,97,0.00,CLR,,0.08,WeatherDisplay:10.37,2013-01-17 00:19:00,
2013-01-16 19:24:00,31.9,31.1,29.86,NE,40,2.4,4.6,97,0.00,CLR,,0.08,WeatherDisplay:10.37,2013-01-17 00:24:00,
2013-01-16 19:29:00,31.9,31.1,29.87,NE,40,1.3,4.6,97,0.00,CLR,,0.08,WeatherDisplay:10.37,2013-01-17 00:29:00,
2013-01-16 19:34:00,31.9,31.1,29.86,NE,40,3.1,6.0,97,0.00,CLR,,0.08,WeatherDisplay:10.37,2013-01-17 00:34:00,
2013-01-16 19:39:00,31.9,31.1,29.87,NE,40,2.7,5.8,97,0.00,CLR,,0.08,WeatherDisplay:10.37,2013-01-17 00:39:00,
2013-01-16 19:45:00,32.1,31.3,29.86,NE,40,3.0,4.6,97,0.00,CLR,,0.08,WeatherDisplay:10.37,2013-01-17 00:45:00,
2013-01-16 19:50:00,32.1,31.3,29.87,NE,40,2.1,3.5,97,0.00,CLR,,0.08,WeatherDisplay:10.37,2013-01-17 00:50:00,
2013-01-16 19:55:00,32.1,31.3,29.87,NE,40,0.9,2.3,97,0.00,CLR,,0.08,WeatherDisplay:10.37,2013-01-17 00:55:00,
2013-01-16 20:00:00,32.1,31.3,29.86,NE,40,0.3,2.3,97,0.00,CLR,,0.08,WeatherDisplay:10.37,2013-01-17 01:00:00,
2013-01-16 20:05:00,31.9,31.1,29.87,NE,40,0.0,0.0,97,0.00,CLR,,0.08,WeatherDisplay:10.37,2013-01-17 01:05:00,
2013-01-16 20:11:00,32.1,31.3,29.87,NE,40,0.0,0.0,97,0.00,CLR,,0.08,WeatherDisplay:10.37,2013-01-17 01:11:00,
2013-01-16 20:16:00,32.1,31.3,29.87,NE,40,0.0,0.0,97,0.00,CLR,,0.08,WeatherDisplay:10.37,2013-01-17 01:16:00,
2013-01-16 20:21:00,32.2,31.4,29.87,NE,40,2.3,5.8,97,0.00,CLR,,0.08,WeatherDisplay:10.37,2013-01-17 01:21:00,
2013-01-16 20:26:00,32.2,31.4,29.87,NE,40,1.3,3.5,97,0.00,CLR,,0.08,WeatherDisplay:10.37,2013-01-17 01:26:00,
2013-01-16 20:31:00,32.4,31.6,29.87,WSW,253,1.0,2.3,97,0.00,CLR,,0.08,WeatherDisplay:10.37,2013-01-17 01:31:00,
2013-01-16 20:36:00,32.4,31.6,29.87,WSW,244,3.4,4.6,97,0.00,CLR,,0.08,WeatherDisplay:10.37,2013-01-17 01:36:00,
2013-01-16 20:41:00,32.4,31.6,29.87,WSW,240,3.0,8.1,97,0.00,CLR,,0.08,WeatherDisplay:10.37,2013-01-17 01:41:00,
2013-01-16 20:47:00,32.4,31.6,29.87,WSW,256,3.7,6.9,97,0.00,CLR,,0.08,WeatherDisplay:10.37,2013-01-17 01:47:00,
2013-01-16 20:52:00,32.2,31.4,29.88,SW,226,3.0,6.9,97,0.00,CLR,,0.08,WeatherDisplay:10.37,2013-01-17 01:52:00,
2013-01-16 20:57:00,32.2,31.4,29.87,WSW,240,1.4,0.0,97,0.00,CLR,,0.08,WeatherDisplay:10.37,2013-01-17 01:57:00,
2013-01-16 21:02:00,32.2,31.4,29.87,SW,236,2.1,2.3,97,0.00,CLR,,0.08,WeatherDisplay:10.37,2013-01-17 02:02:00,
2013-01-16 21:08:00,32.4,31.6,29.87,WSW,253,0.0,0.0,97,0.00,CLR,,0.08,WeatherDisplay:10.37,2013-01-17 02:08:00,
2013-01-16 21:13:00,32.4,31.6,29.88,SW,236,1.4,4.6,97,0.00,CLR,,0.08,WeatherDisplay:10.37,2013-01-17 02:13:00,
2013-01-16 21:18:00,32.4,31.6,29.87,WSW,240,1.0,4.6,97,0.00,CLR,,0.08,WeatherDisplay:10.37,2013-01-17 02:18:00,
2013-01-16 21:23:00,32.4,31.6,29.87,West,275,2.8,3.5,97,0.00,CLR,,0.08,WeatherDisplay:10.37,2013-01-17 02:23:00,
2013-01-16 21:28:00,32.4,31.6,29.87,SW,215,0.0,0.0,97,0.00,CLR,,0.08,WeatherDisplay:10.37,2013-01-17 02:28:00,
2013-01-16 21:34:00,32.4,31.6,29.87,SSW,210,1.4,3.5,97,0.00,CLR,,0.08,WeatherDisplay:10.37,2013-01-17 02:34:00,
2013-01-16 21:39:00,32.2,31.4,29.87,SW,230,1.1,4.6,97,0.00,CLR,,0.08,WeatherDisplay:10.37,2013-01-17 02:39:00,
2013-01-16 21:44:00,32.2,31.4,29.87,WSW,256,0.0,0.0,97,0.00,CLR,,0.08,WeatherDisplay:10.37,2013-01-17 02:44:00,
2013-01-16 21:49:00,32.2,31.4,29.87,WSW,246,0.0,1.2,97,0.00,CLR,,0.08,WeatherDisplay:10.37,2013-01-17 02:49:00,
2013-01-16 21:54:00,32.2,31.4,29.86,SW,224,0.0,0.0,97,0.00,CLR,,0.08,WeatherDisplay:10.37,2013-01-17 02:54:00,
2013-01-16 21:59:00,32.2,31.4,29.86,SSW,202,0.0,0.0,97,0.00,CLR,,0.08,WeatherDisplay:10.37,2013-01-17 02:59:00,
2013-01-16 22:04:00,32.2,31.4,29.86,SW,232,1.4,4.6,97,0.00,CLR,,0.08,WeatherDisplay:10.37,2013-01-17 03:04:00,
2013-01-16 22:09:00,32.2,31.4,29.87,SSW,198,2.2,3.5,97,0.00,CLR,,0.08,WeatherDisplay:10.37,2013-01-17 03:09:00,
2013-01-16 22:14:00,32.2,31.4,29.87,SW,233,1.2,5.8,97,0.00,CLR,,0.08,WeatherDisplay:10.37,2013-01-17 03:14:00,
2013-01-16 22:19:00,32.2,31.4,29.87,SSW,195,2.5,5.0,97,0.00,CLR,,0.08,WeatherDisplay:10.37,2013-01-17 03:19:00,
2013-01-16 22:25:00,32.2,31.4,29.87,SSW,209,2.0,3.5,97,0.00,CLR,,0.08,WeatherDisplay:10.37,2013-01-17 03:25:00,
2013-01-16 22:30:00,32.4,31.6,29.86,WSW,250,2.2,3.5,97,0.00,CLR,,0.08,WeatherDisplay:10.37,2013-01-17 03:30:00,
2013-01-16 22:35:00,32.4,31.6,29.86,SW,216,0.4,3.5,97,0.00,CLR,,0.08,WeatherDisplay:10.37,2013-01-17 03:35:00,
2013-01-16 22:40:00,32.2,31.4,29.86,SW,219,1.9,3.5,97,0.00,CLR,,0.08,WeatherDisplay:10.37,2013-01-17 03:40:00,
2013-01-16 22:45:00,32.2,31.4,29.87,SSW,213,0.0,0.0,97,0.00,CLR,,0.08,WeatherDisplay:10.37,2013-01-17 03:45:00,
2013-01-16 22:50:00,32.2,31.4,29.87,SSW,196,1.9,4.6,97,0.00,CLR,,0.08,WeatherDisplay:10.37,2013-01-17 03:50:00,
2013-01-16 22:56:00,32.4,31.6,29.87,SSW,192,2.1,5.0,97,0.00,CLR,,0.08,WeatherDisplay:10.37,2013-01-17 03:56:00,
2013-01-16 23:01:00,32.5,31.7,29.87,SSW,198,3.8,5.8,97,0.00,CLR,,0.08,WeatherDisplay:10.37,2013-01-17 04:01:00,
2013-01-16 23:06:00,32.5,31.7,29.87,SW,220,3.5,5.8,97,0.00,CLR,,0.08,WeatherDisplay:10.37,2013-01-17 04:06:00,
2013-01-16 23:11:00,32.5,31.7,29.88,SW,223,2.9,5.8,97,0.00,CLR,,0.08,WeatherDisplay:10.37,2013-01-17 04:11:00,
2013-01-16 23:16:00,32.5,31.7,29.88,SSW,209,2.2,3.5,97,0.00,CLR,,0.08,WeatherDisplay:10.37,2013-01-17 04:16:00,
2013-01-16 23:21:00,32.7,31.9,29.88,South,191,3.0,4.6,97,0.00,CLR,,0.08,WeatherDisplay:10.37,2013-01-17 04:21:00,
2013-01-16 23:26:00,32.7,31.9,29.88,SW,226,2.8,5.8,97,0.00,CLR,,0.08,WeatherDisplay:10.37,2013-01-17 04:26:00,
2013-01-16 23:31:00,32.7,31.9,29.88,SW,234,3.1,5.8,97,0.00,CLR,,0.08,WeatherDisplay:10.37,2013-01-17 04:31:00,
2013-01-16 23:36:00,32.7,31.9,29.89,SW,232,2.6,5.8,97,0.00,CLR,,0.08,WeatherDisplay:10.37,2013-01-17 04:36:00,
2013-01-16 23:42:00,32.7,31.9,29.88,WSW,243,3.5,5.8,97,0.00,CLR,,0.08,WeatherDisplay:10.37,2013-01-17 04:42:00,
2013-01-16 23:47:00,32.7,31.9,29.88,WSW,243,2.6,5.8,97,0.00,CLR,,0.08,WeatherDisplay:10.37,2013-01-17 04:47:00,
2013-01-16 23:52:00,32.7,31.9,29.88,WSW,237,1.2,3.5,97,0.00,CLR,,0.08,WeatherDisplay:10.37,2013-01-17 04:52:00,
2013-01-16 23:57:00,32.7,31.9,29.88,WSW,237,0.0,0.0,97,0.00,CLR,,0.08,WeatherDisplay:10.37,2013-01-17 04:57:00,